[轉播] 味全 1:3 樂天 三▼ 朱育賢

看板 Monkeys
作者
時間
留言 94則留言,56人參與討論
推噓 62 ( 62推 0噓 32→ )
  ◆  P:陳明軒  ◇ ◆ NP:39 OUT:○○ 愛姊姊打線 愛起來 狂起來 愛愛愛不完 不要停! B S 126 F 打到烤肉區 笑死 F B 143 一直拍烤肉席… !!!! F 125 HRRRRRRRRRRRRRRRRRRRRRRRRRR 一 秀 二 晉仔 --
※ 發信站: 批踢踢實業坊(ptt.cc), 來自: 220.142.2.224 (臺灣) ※ 文章網址: https://www.ptt.cc/bbs/Monkeys/M.1656151184.A.624.html ※ 編輯: sp89005 (220.142.2.224 臺灣), 06/25/2022 18:00:07
1FMELOEX: 炸裂吧!!!!! 06/25 18:00
2Fmikehu: 一棒三分 06/25 18:00
3Fblairchief: 上壘就好!! 06/25 18:00
4Fisaac410: 要點嗎XDD 06/25 18:00
5Fbabysylvia: 有種撈一支啊 敢不敢? 06/25 18:00
6Fcopperlin: 朱哥炸吧 06/25 18:00
7Faustin0624: 1s1b 06/25 18:00
8Fkkkkk4847: 點吧… 06/25 18:00
9Fttyy345889: 今年選球不見了 06/25 18:00
10Fbabysylvia: 突然打光了 是sigh 啊 06/25 18:00
11Faustin0624: 2s1b 06/25 18:00
12FMELOEX: 選球 不然炸他! 06/25 18:01
13Fmikehu: 很喜歡打低球耶 06/25 18:01
14Fapplejone: 串啦 06/25 18:01
15Fstonys: 0.173是啥鬼啦 XDDD 06/25 18:01
16Fhbo225363: 陽光好刺眼 06/25 18:01
17FInazuma: 幹點大事好嗎? 06/25 18:01
18Fji31g42go61: 173是個身高的好數字。(?) 06/25 18:01
19Faustin0624: 界外 06/25 18:01
※ 編輯: sp89005 (220.142.2.224 臺灣), 06/25/2022 18:01:49
20Fji31g42go61: 原因喔?BMI超好算啊(茶)。 06/25 18:01
21Fgyhua: 昌哥:鐵沙掌欸 06/25 18:01
22Fkkkkk4847: 九棒加油 06/25 18:01
23Fttyy345889: 至少要突破一下身高啊大朱 06/25 18:02
24Fkkkkk4847: 把攻勢串到第一棒 06/25 18:02
25Fbonliu: 串下去 06/25 18:02
※ 編輯: sp89005 (220.142.2.224 臺灣), 06/25/2022 18:02:21
26Fblairchief: 人好多 陽光好大 06/25 18:02
27Faustin0624: 2s2b 06/25 18:02
28Fbabysylvia: 朱哥不是187嗎 加油好嗎 06/25 18:02
29Fhbo225363: 打擊率拜託超過身高啊 06/25 18:02
30Fagantw: 再下去要比短今矮了 06/25 18:02
※ 編輯: sp89005 (220.142.2.224 臺灣), 06/25/2022 18:03:02
31Fblairchief: 阿嬤感覺專業 06/25 18:02
32Faustin0624: 界外 06/25 18:02
33Fbabysylvia: 烤香腸真不吉利 06/25 18:03
34Fbabysylvia: 趕快烤一烤 八局不要烤餒 06/25 18:03
35Fbonliu: 加油 06/25 18:03
36Fstonys: 炸裂 06/25 18:03
37Faustin0624: HR 06/25 18:03
※ 編輯: sp89005 (220.142.2.224 臺灣), 06/25/2022 18:04:00
38Fray830330: 有啦 06/25 18:04
39Fbrian9b3b: 水啦 06/25 18:04
40FGN01121350: 出去啦 !!! 06/25 18:04
41Fpuda: 炸 爽 06/25 18:04
42Fjs9840716: 有啦 06/25 18:04
43Fcheng520: 喔喔喔喔喔喔 06/25 18:04
44Fdragon50119: 我朱威武!! 06/25 18:04
45Fflylim0902: 朱哥!!! 06/25 18:04
46Fblairchief: 哇嗚 我愛你 06/25 18:04
47Fshinichi: 一棒三分! 06/25 18:04
48Fbabysylvia: 就說是sigh啊啊啊啊啊啊啊 06/25 18:04
49Faustin0624: 1:6 06/25 18:04
50Fdlchang5810: 撈到啦 06/25 18:04
51FLinChinHoung: 出去啦!!! 06/25 18:04
52Fttyy345889: 終於啦電風扇打出去了 06/25 18:04
53FCAIJEIWEN: 朱哥我愛你!! 06/25 18:04
54Fhbo225363: 一棒三分 06/25 18:04
55Fji31g42go61: 有啦!!!!!!還好這次我開電視不是看到壞事。 06/25 18:04
56FArodz: 大朱 四棒! 06/25 18:04
57FMELOEX: 小水槍跟盲砲都做事啦!!!!! 06/25 18:04
58Fu06u83fu6: 朱哥讚 06/25 18:04
59Fjackie30219: 蛋哥我愛你 06/25 18:04
60Fji4mp6: 還好 他還有長打 06/25 18:04
61Fbuy520d: 一棒三分ya 06/25 18:04
62Fisaac410: 爽啦 06/25 18:04
63Fbabysylvia: 上帝打光啊 是sigh啊啊啊啊啊啊 06/25 18:04
64Fmikehu: 誰說朱哥不會打四棒………. 06/25 18:04
65Fhuabei6: 一棒三分!!!!!! 06/25 18:04
66Fjs9840716: 偶有佳作的佳作來啦 06/25 18:04
67Fiki912857: 哭啊 沒看到 06/25 18:04
68Fcopperlin: 朱哥超帥 06/25 18:04
69Fshui2005: 讚啦 06/25 18:04
70Fevisuqq: 有了 06/25 18:04
71Fyccm: 一胖三分啊啊啊啊! 06/25 18:04
72Frandy211161: 打擊率低迷沒關係 長打率跟打點能力還有就好 06/25 18:04
73Foliver81405: 反觀 06/25 18:04
74Fdr900143: 打臉啦 06/25 18:05
75Fapplejone: yea 06/25 18:05
76Fccc12233: 讚啦 06/25 18:05
77Fblairchief: 打擊率低歸低 偶爾就是會轟出去XD 06/25 18:05
78Fwestinsane: 爽啦!現在秀朱都比胖有期待感 06/25 18:05
79FArodz: 大朱打法沒有問題 把他當日職四棒看就對了 06/25 18:05
80FShockG: 中心棒次有表現得分效率就好啦,這次後連到前有再串起來了 06/25 18:05
81FImMACACO: 每發都出去 power 超猛 06/25 18:05
82FLaBoLa: 誰敢再嘴朱哥的 06/25 18:05
83FArodz: 不彈球 就是要這樣打 06/25 18:05
84Fjimmysinb: 爽啦 06/25 18:05
85FJoba07: 終於出去啦 這才是中心打線啊 06/25 18:05
86Fbryanma: 怎麼可能 XD 06/25 18:06
87Fblairchief: 沒人嘴他啦 只是心疼他一直生大病很可憐 06/25 18:06
88Fhuabei6: 真的心疼QQQQQ 06/25 18:07
89Fworthyang: 朱哥對不起 06/25 18:07
90Flouhuang: 朱哥這樣打就對了,加油!!! 06/25 18:07
91FNSYSUheng: 爽 一打開直播就開轟 恭喜朱哥500打點 06/25 18:09
92Fnlmavs08: 舒舒服服 06/25 18:13
93Fstanleysweet: 窮到只剩全壘打 但看了真的很爽XDDDD 06/25 18:16
94Fpanhoho: 水 06/25 18:28

Monkeys 看板熱門文章

805
1499

最新文章